Location: ??????????
(55.4621°N, 38.3448°E)
Time: 06:01:31
(UTC+00:00)

Daily predictions for brighter satellites

Satellite Brightness Start Highest point End
(mag) Time Altitude Azimuth Time Altitude Azimuth Time Altitude Azimuth
CSL-04 Rocket 3.8 16:27:40 10° SE 16:33:06 60° ENE 16:38:30 10° NNW
Okean 2 4.2 16:32:59 10° NNW 16:36:59 55° W 16:41:00 10° S
Cosmos 1975 3.9 16:35:24 10° SSW 16:39:17 51° WNW 16:43:15 10° N
Cosmos 2233 Rocket 4.1 16:34:32 10° NNW 16:40:45 88° WSW 16:46:58 10° S
Cosmos 1302 Rocket 4.5 16:37:23 10° S 16:42:17 40° ESE 16:47:12 10° NE
Cosmos 2084 4.5 16:39:06 10° NW 16:42:30 31° NNE 16:45:58 10° ENE
NOSS 3-1 (C) 4.5 16:37:48 10° WNW 16:43:50 46° N 16:51:12 10° E
Cosmos 2263 Rocket 3.5 16:45:39 10° SE 16:49:11 17° E 16:52:45 10° ENE
Cosmos 1674 Rocket 3.5 16:46:35 10° N 16:50:55 64° ENE 16:55:11 10° SSE
IGS 5A 4.1 16:47:53 10° S 16:51:58 60° W 16:56:05 10° NNW
Meteor 2-10 4.2 16:47:41 10° SSW 16:52:46 77° WNW 16:58:00 10° NNE
USA 215 3.4 16:47:40 10° ENE 16:54:07 58° SSE 17:00:33 10° SW
MINOTAUR 4 R/B 3.8 16:50:58 10° NNE 16:54:25 75° ESE 16:57:49 10° S
Cosmos 2237 Rocket 3.8 16:49:58 10° NW 16:55:03 35° WSW 17:00:05 10° S
Cosmos 1733 Rocket 3.0 16:50:49 10° S 16:55:04 60° E 16:59:21 10° NNE
Cosmos 1378 Rocket 3.5 16:53:09 10° N 16:57:37 76° ENE 17:02:03 10° SSE
USA 281 3.2 16:51:12 10° NNE 16:57:50 81° ESE 17:04:25 10° SSW
CARTOSAT-1 4.4 16:55:19 10° SE 16:59:12 34° ENE 17:03:05 10° N
Geosat 4.3 16:55:32 10° SE 17:00:26 55° NE 17:05:22 10° NNW
Cosmos 1025 Rocket 4.1 16:57:30 10° N 17:01:15 28° ENE 17:04:26 13° ESE
Cosmos 1726 3.1 16:59:39 10° SSW 17:03:05 49° WNW 17:06:33 10° N
Cosmos 1766 3.1 17:03:17 10° S 17:07:05 82° E 17:10:55 10° NNE
Meteor 2-5 Rocket 3.8 17:01:34 10° NNW 17:07:26 70° ENE 17:13:21 10° SSE
SL-4 R/B 3.0 17:05:12 10° SW 17:09:30 37° SSE 17:13:00 14° E
Cosmos 2034 Rocket 4.3 17:04:14 10° N 17:10:12 46° ENE 17:16:00 10° SE
Meteor 1-12 Rocket 4.3 17:08:40 10° S 17:14:15 56° E 17:19:48 10° NNE
GEOS 3 Rocket 4.1 17:09:39 10° NE 17:14:46 42° SE 17:19:51 10° SSW
Resurs 1-3 4.0 17:10:49 10° S 17:15:09 67° WSW 17:19:33 10° NNW
Cosmos 1503 Rocket 4.2 17:10:11 10° NNW 17:15:24 57° ENE 17:19:49 14° SE
SJ 16-02 1.3 17:11:46 10° NNW 17:16:10 71° ENE 17:20:07 13° SE
Cosmos 1992 Rocket 4.5 17:11:59 10° S 17:16:44 37° ESE 17:21:31 10° NE
ATLAS 2AS CENTAUR R/B 4.0 17:12:05 10° SSE 17:16:55 18° ESE 17:21:39 10° ENE
Resurs 01 Rocket 1.6 17:13:52 10° SSE 17:18:15 69° ENE 17:22:39 10° NNW
SPOT 5 3.8 17:20:42 17° ESE 17:23:48 33° ENE 17:28:18 10° N
Cosmos 1486 Rocket 4.1 17:19:58 10° NNW 17:25:20 87° WSW 17:30:25 11° SSE
Cosmos 1943 3.3 17:20:22 10° NNW 17:25:59 63° NE 17:30:14 18° SE
Cosmos 1603 4.0 17:24:29 10° NNW 17:30:10 57° NE 17:34:11 19° ESE
Cosmos 1908 Rocket 3.7 17:26:22 10° S 17:30:41 52° E 17:35:01 10° NNE
Cosmos 1867 4.2 17:25:19 10° WSW 17:30:43 61° NW 17:36:10 10° NE
Meteor 2-15 4.4 17:24:38 10° NNW 17:30:49 88° ENE 17:36:56 10° S
BREEZE-M DEB (TANK) 3.8 17:24:43 10° W 17:31:51 49° SSW 17:34:45 19° SE
USA 267 4.5 17:26:56 10° SSE 17:32:44 33° SW 17:38:35 10° WNW
NOSS 2-1 (C) 3.6 17:30:53 10° S 17:33:40 27° SE 17:33:54 27° ESE
NOSS 3-4 (A) 3.3 17:28:41 10° SW 17:34:19 67° SE 17:40:35 10° NE
NOSS 3-4 (C) 3.3 17:28:48 10° SW 17:34:25 67° SE 17:40:41 10° NE
IRS-1C Rocket 4.3 17:29:15 10° SSE 17:34:31 77° WSW 17:39:51 10° NNW
Meteor 2-8 Rocket 4.4 17:29:16 10° NNW 17:35:28 87° E 17:41:39 10° SSE
SPOT 3 Rocket 4.2 17:34:17 20° ESE 17:37:28 41° ENE 17:42:21 10° N
ATLAS 3B R/B 3.2 17:30:50 10° NW 17:38:13 63° NNE 17:44:04 19° ESE
NOSS 2-1 (D) 3.5 17:35:34 10° SSW 17:38:31 31° SE 17:39:01 29° ESE
Cosmos 2297 Rocket 2.7 17:32:59 10° SW 17:38:36 63° NW 17:44:15 10° NNE
Meteor 2-15 Rocket 4.4 17:34:05 10° NNW 17:40:18 82° ENE 17:46:25 10° SSE
Cosmos 2344 4.1 17:33:20 10° WNW 17:41:09 65° NNE 17:49:12 18° ESE
Cosmos 1271 Rocket 3.3 17:37:43 10° SSW 17:41:23 56° WNW 17:45:04 10° N
MOS 1 4.3 17:35:49 10° SSE 17:41:28 86° ENE 17:47:14 10° NNW
Cosmos 2346 Rocket 4.4 17:35:42 10° S 17:41:51 77° E 17:48:07 10° NNE
BREEZE M DEB (TANK) 3.3 17:40:15 10° WSW 17:42:07 22° S 17:42:18 22° S
Okean O Rocket 4.0 17:38:36 10° SSW 17:42:10 24° W 17:45:44 10° NW
IRS-1A Rocket 4.3 17:37:12 13° SSE 17:42:28 77° ENE 17:48:16 10° NNW
ERS-1 Rocket 3.7 17:40:53 22° ESE 17:43:30 37° ENE 17:48:07 10° N
Meteor 1-22 Rocket 4.3 17:37:45 10° S 17:43:48 72° E 17:49:45 10° NNE
Cosmos 1975 Rocket 3.2 17:40:49 10° N 17:45:14 57° ENE 17:47:48 24° SE
Cosmos 1777 Rocket 4.1 17:40:14 10° NNW 17:45:26 63° ENE 17:48:35 24° SE
Okean-O 3.5 17:41:37 10° S 17:45:54 49° W 17:50:14 10° NNW
CZ-4 R/B 4.2 17:44:20 10° SW 17:46:50 16° W 17:49:22 10° NW
Cosmos 2082 3.7 17:44:09 10° SSW 17:49:38 58° ESE 17:55:10 10° NE
H-2A R/B 2.8 17:47:22 25° SE 17:49:45 55° ENE 17:54:06 10° N
Cosmos 1833 Rocket 4.5 17:45:32 10° NNW 17:49:52 22° NNE 17:54:09 10° ENE
Cosmos 1464 Rocket 4.2 17:43:50 10° NNW 17:50:14 80° W 17:56:37 10° S
Lacrosse 5 rocket 1.3 17:46:08 10° WSW 17:50:22 82° NNW 17:53:09 19° ENE
RESURS DK-1 3.7 17:51:42 22° E 17:51:42 22° E 17:53:53 10° NE
ISS -1.1 17:49:23 10° WSW 17:50:30 11° SW 17:51:37 10° SSW
Cosmos 1340 Rocket 2.6 17:47:15 10° NNW 17:51:11 82° ENE 17:53:23 25° SSE
Cosmos 2082 Rocket 4.4 17:48:12 10° NNW 17:51:54 17° N 17:55:36 10° NE
Cosmos 1300 Rocket 4.3 17:51:07 28° ESE 17:52:11 32° E 17:56:04 10° NNE
NOSS 3-1 (A) 4.4 17:46:08 10° WNW 17:52:23 50° NNE 17:58:44 15° E
USA 245 3.9 17:50:45 29° ESE 17:52:29 49° ENE 17:57:10 10° N
Cosmos 1300 4.3 17:53:31 18° ENE 17:53:31 18° ENE 17:55:26 10° NE
NOSS 2-2 (E) 4.3 17:48:50 10° NW 17:52:45 47° NNE 17:55:47 22° E
Meteor 1-24 Rocket 4.2 17:49:02 10° NNW 17:54:58 66° W 18:00:56 10° S
Cosmos 2227 Rocket 2.5 17:49:51 10° SW 17:55:31 71° NW 18:01:13 10° NNE
Terra 2.5 17:55:32 27° ESE 17:57:23 38° ENE 18:01:47 10° N
Cosmos 2219 3.2 17:52:20 10° SW 17:57:58 85° WNW 18:03:39 10° NNE
Aureole 3 Rocket 4.2 17:56:37 10° NNE 17:58:34 17° NE 17:58:34 17° NE
BlueWalker 3 2.4 17:57:14 10° SW 18:00:55 41° SSE 18:01:30 38° SE
SME Rocket 4.5 17:57:10 23° ESE 18:00:58 45° ENE 18:05:45 10° N
CZ-4C R/B 3.6 17:54:36 10° NW 18:01:20 51° SW 18:08:04 15° SSE
Meteor 2-19 Rocket 4.4 17:55:31 10° S 18:01:32 61° E 18:07:32 10° NNE
SPOT 1/Viking Rocket 4.3 17:56:32 10° S 18:01:35 51° W 18:06:43 10° NNW
ADEOS Rocket 3.6 17:59:47 24° SE 18:04:01 57° ENE 18:11:17 10° NNW
Cosmos 1782 Rocket 3.5 18:02:16 21° S 18:05:06 61° E 18:09:26 10° NNE
Cosmos 1470 3.4 18:01:45 10° SSW 18:05:36 55° WNW 18:09:26 10° N
MetOp-B 4.1 18:02:13 20° SSE 18:06:00 90° WSW 18:11:25 10° NNW
Spot 2 4.4 18:05:24 31° SE 18:07:37 62° ENE 18:12:13 10° N
Ariane Rocket 2.9 18:06:08 26° SSE 18:09:06 82° ENE 18:14:11 10° NNW
SL-16 R/B 3.9 18:04:48 10° NW 18:09:38 29° WSW 18:14:26 10° SSW
Meteor 1-21 Rocket 4.4 18:06:48 10° N 18:12:40 61° ENE 18:15:31 31° SE
Cosmos 1354 Rocket 4.1 18:07:38 10° NNW 18:12:54 75° WSW 18:15:55 26° SSE
Cosmos 1908 3.0 18:13:53 25° S 18:16:00 87° E 18:19:47 10° NNE
ARIANE 5 R/B 3.9 18:16:15 24° ENE 18:17:02 25° ENE 18:20:41 10° N
Aureole 1 Rocket 2.6 18:13:24 10° NNW 18:17:50 90° NNE 18:18:43 51° SSE
Spot 2 Rocket 3.5 18:17:20 35° SE 18:19:26 66° ENE 18:24:31 10° NNW
Cosmos 1758 3.1 18:18:18 28° S 18:20:18 85° E 18:24:16 10° NNE
Landsat 5 3.8 18:16:32 10° N 18:20:24 61° WNW 18:24:23 10° SSW
Cosmos 2084 3.1 18:18:25 10° NW 18:22:14 83° NE 18:22:57 57° ESE
Cosmos 1816 Rocket 4.4 18:23:33 10° S 18:29:41 89° WNW 18:35:52 10° NNE
deb Chang Zheng 4 3.2 18:29:24 60° ESE 18:29:49 67° ENE 18:33:39 10° NNW
Cosmos 1634 Rocket 4.0 18:24:18 10° N 18:30:41 80° ENE 18:33:54 32° SSE
NOSS 2-1 (E) 4.3 18:28:47 10° SW 18:30:15 25° SW 18:30:15 25° SW
Cosmos 2263 Rocket 2.0 18:26:42 10° SSW 18:32:15 78° ESE 18:37:52 10° NE
Timation 2 Rocket 4.2 18:30:37 28° SSE 18:33:31 46° ESE 18:39:39 10° NE
NOSS 3-1 (C) 3.9 18:28:47 10° NW 18:35:36 76° NE 18:39:44 32° ESE
Cosmos 1825 3.5 18:34:08 10° N 18:36:43 26° NE 18:36:43 26° NE
USA 215 3.2 18:30:52 10° ENE 18:37:26 86° NNW 18:44:01 10° W
ATLAS CENTAUR R/B 3.7 18:24:36 10° W 18:37:45 83° NNW 18:42:32 18° ENE
ASTEX 1 4.2 18:37:27 32° E 18:37:52 33° ENE 18:42:13 10° N
Cosmos 1892 3.4 18:34:58 10° N 18:38:01 39° NE 18:38:01 39° NE
Cosmos 1844 Rocket 4.1 18:40:46 22° ENE 18:40:46 22° ENE 18:43:26 10° NE
Cosmos 1025 Rocket 4.0 18:34:54 10° NNW 18:39:00 43° W 18:41:17 23° SSW
Cosmos 2151 Rocket 4.4 18:41:36 36° ENE 18:41:36 36° ENE 18:45:08 10° NNE
Cosmos 1328 3.7 18:37:45 10° N 18:41:44 65° ENE 18:41:48 64° E
CZ-4C R/B 3.9 18:40:57 10° NNE 18:42:48 35° N 18:42:48 35° N
Cosmos 1703 4.1 18:40:19 10° NNW 18:44:02 45° W 18:45:11 34° SW
H-2A R/B 3.4 18:42:07 10° NNE 18:44:37 26° ENE 18:44:37 26° ENE
NOSS 2-2 (C) 3.9 18:42:42 10° NW 18:46:49 68° NE 18:48:04 48° E
Cosmos 371 Rocket 4.2 18:43:01 10° NNW 18:47:29 34° NE 18:48:23 32° ENE
SL-4 R/B 2.4 18:43:55 10° WSW 18:48:15 53° S 18:48:15 53° S
Cosmos 1953 2.5 18:49:18 55° ENE 18:49:18 55° ENE 18:52:47 10° NNE
Meteor 2-10 Rocket 3.3 18:49:50 54° SSE 18:50:44 66° E 18:55:43 10° NNE
Cosmos 1408 2.8 18:49:03 10° NNW 18:51:53 59° NNW 18:51:53 59° NNW
GEOS 3 Rocket 4.0 18:47:39 10° NE 18:53:00 68° NW 18:58:22 10° WSW
SJ 16-02 3.6 18:51:04 10° NW 18:54:10 19° W 18:57:01 11° SW
Resurs 01 Rocket 4.0 18:52:00 10° SW 18:55:12 19° W 18:58:25 10° NW
Meteor 1-16 Rocket 4.0 18:53:57 36° S 18:56:19 83° ESE 19:01:48 10° NNE
SPOT 5 3.5 18:59:53 33° SSW 19:01:40 50° W 19:06:37 10° NNW
Okean 1 Rocket 4.4 19:03:31 27° NE 19:03:31 27° NE 19:06:02 10° NNE
Cosmos 2142 Rocket 4.4 18:58:24 10° N 19:04:35 86° ENE 19:06:28 48° SSE
Okean 2 Rocket 3.3 19:06:20 56° ENE 19:06:20 56° ENE 19:10:07 10° NNE
ATLAS 2AS CENTAUR R/B 2.8 18:59:10 10° SSW 19:06:37 60° SE 19:13:46 10° NE
Cosmos 2227 4.1 19:06:10 28° SSW 19:09:19 80° ESE 19:15:07 10° NE
Cosmos 1943 4.5 19:04:48 10° NW 19:09:44 32° WSW 19:12:03 23° SSW
NOSS 2-2 (D) 3.7 19:06:20 10° NW 19:10:35 87° NE 19:11:06 72° ESE
Tsikada Rocket 4.3 19:09:33 19° SSW 19:14:03 66° WNW 19:20:12 10° N
Meteor 1-11 4.1 19:09:19 10° NNW 19:15:00 85° ENE 19:16:02 62° SSE
Meteor 2-14 Rocket 4.3 19:14:37 46° S 19:16:36 85° ESE 19:22:49 10° NNE
SPOT 3 Rocket 4.5 19:14:54 30° SW 19:16:53 43° W 19:21:52 10° NNW
Cosmos 1455 4.4 19:19:31 17° NE 19:19:31 17° NE 19:20:32 10° NNE
USA 229 DEB 4.1 19:10:58 10° NW 19:17:59 63° NNE 19:21:28 34° E
USA 229 4.1 19:11:04 10° NW 19:18:04 62° NNE 19:21:34 33° E
ERS-1 Rocket 3.8 19:20:50 35° SW 19:22:16 44° W 19:27:04 10° NNW
Cosmos 2297 Rocket 4.5 19:19:13 10° W 19:23:45 24° NNW 19:28:19 10° NNE
H-2A R/B 4.4 19:23:43 20° SW 19:25:18 25° W 19:29:00 10° NW
NOSS 3-4 (A) 4.2 19:19:44 10° W 19:25:28 52° NNW 19:31:58 10° NE
NOSS 3-4 (C) 4.2 19:19:50 10° W 19:25:34 52° NNW 19:32:03 10° NE
Cosmos 1763 Rocket 4.5 19:28:03 32° ENE 19:28:03 32° ENE 19:31:08 10° NE
Cosmos 1300 3.6 19:28:07 46° NW 19:28:07 46° NW 19:31:24 10° N
RESURS DK-1 3.0 19:27:16 45° W 19:28:06 54° NW 19:32:11 10° NNE
ATLAS 3B R/B 3.1 19:21:46 10° NW 19:29:10 60° SW 19:31:19 46° S
Lacrosse 5 rocket 2.0 19:25:17 10° WNW 19:28:29 50° WNW 19:28:29 50° WNW
Cosmos 1536 Rocket 4.1 19:25:28 10° NNW 19:29:46 52° W 19:29:51 52° W
Cosmos 2279 Rocket 4.2 19:23:42 10° NNW 19:29:53 65° W 19:31:46 44° SSW
Meteor 2-21 4.4 19:31:19 48° SSW 19:33:13 83° WNW 19:39:29 10° NNE
Terra 2.8 19:34:16 36° WSW 19:35:03 39° W 19:39:30 10° NNW
Cosmos 1833 Rocket 3.0 19:29:30 10° NNW 19:35:04 53° NE 19:35:50 50° ENE
Cosmos 2082 Rocket 3.5 19:32:48 10° NNW 19:37:49 32° NE 19:39:33 26° ENE
BlueWalker 3 4.3 19:35:23 10° W 19:36:16 16° WSW 19:36:16 16° WSW
Cosmos 2227 Rocket 4.4 19:35:53 10° W 19:40:34 25° NNW 19:45:14 10° NNE
NOSS 2-2 (E) 4.3 19:38:51 10° WNW 19:42:57 54° WSW 19:42:57 54° WSW
NOSS 3-1 (A) 3.8 19:37:02 10° NW 19:44:00 89° SW 19:46:09 54° SE
ADEOS Rocket 4.2 19:46:44 28° SW 19:49:45 43° W 19:56:45 10° NNW
Cosmos 372 Rocket 3.9 19:46:07 10° NNW 19:51:01 79° N 19:51:01 79° N
Cosmos 2292 Rocket 4.3 19:51:58 73° SSE 19:52:31 79° E 19:59:49 10° NNE
Spot 4 4.3 19:53:11 53° NE 19:53:11 53° NE 19:57:28 10° N
ARIANE 5 R/B 3.2 19:53:45 53° WNW 19:53:45 53° WNW 19:57:35 10° NNW
Meteor 2-16 Rocket 4.3 19:52:29 70° SSW 19:53:16 89° WNW 19:59:25 10° NNE
Cosmos 1937 Rocket 3.5 19:48:57 10° NNW 19:53:59 81° WNW 19:53:59 81° WNW
Cosmos 2278 Rocket 4.5 19:58:03 11° ENE 19:58:03 11° ENE 19:58:26 10° ENE
Cosmos 2344 4.3 19:47:38 10° NW 19:55:52 60° SW 19:59:13 44° S
Cosmos 1400 Rocket 4.4 19:55:05 10° N 19:57:19 29° NNE 19:57:19 29° NNE
Cosmos 1898 Rocket 3.8 19:57:32 10° NNW 20:02:35 59° W 20:02:35 59° W
Cosmos 1892 Rocket 4.3 20:03:11 10° NNW 20:06:40 53° NNW 20:06:40 53° NNW
Cosmos 1844 3.7 20:10:24 73° ENE 20:10:24 73° ENE 20:15:39 10° NE
ALOS 2 3.7 20:11:51 41° NNE 20:11:51 41° NNE 20:15:02 10° N
Cosmos 1825 4.2 20:09:08 10° NNW 20:11:04 24° NW 20:11:04 24° NW
Cosmos 332 Rocket 4.3 20:08:21 10° NNW 20:12:19 56° N 20:12:19 56° N
ASTEX 1 4.1 20:16:54 45° W 20:16:54 45° W 20:21:26 10° NNW
Cosmos 2263 Rocket 3.8 20:11:46 10° W 20:16:45 32° NW 20:21:45 10° NNE
Cosmos 1553 Rocket 4.2 20:12:10 10° N 20:18:22 56° ENE 20:18:34 55° E
Cosmos 540 Rocket 4.1 20:21:23 46° NE 20:21:23 46° NE 20:25:02 10° NNE
USA 215 3.2 20:18:03 43° E 20:20:28 81° N 20:27:02 10° WNW
Helios 1A Rocket 4.4 20:22:45 33° NW 20:22:45 33° NW 20:25:07 10° NNW
H-2A R/B 3.2 20:17:55 10° N 20:21:36 39° NW 20:21:36 39° NW
Cosmos 1844 Rocket 2.7 20:22:21 76° NW 20:22:21 76° NW 20:27:55 10° NNE
Nadezhda 4 Rocket 3.9 20:23:07 74° WSW 20:23:31 77° WNW 20:29:41 10° N
COSMOS 2406 3.6 20:18:17 10° NNW 20:23:54 54° NE 20:24:07 54° ENE
NOSS 3-1 (C) 4.4 20:19:38 10° NW 20:26:26 45° SW 20:27:07 44° SW
Cosmos 371 Rocket 4.2 20:23:22 10° NW 20:27:01 42° WNW 20:27:01 42° WNW
Cosmos 841 Rocket 4.5 20:34:44 39° NE 20:34:44 39° NE 20:38:06 10° NNE
Cosmos 468 Rocket 4.4 20:44:12 58° NNW 20:44:12 58° NNW 20:48:35 10° NNE
Cosmos 1455 Rocket 4.4 20:51:25 38° N 20:51:25 38° N 20:54:16 10° N
Cosmos 1428 Rocket 4.4 20:52:07 78° W 20:52:11 78° WNW 20:58:28 10° N
ATLAS CENTAUR R/B 2.9 20:43:26 10° WNW 20:51:45 72° WNW 20:51:45 72° WNW
Cosmos 1092 Rocket 3.9 20:54:47 79° WNW 20:54:47 79° WNW 21:00:56 10° N
ATLAS 2AS CENTAUR R/B 3.2 20:50:15 10° WSW 20:57:45 62° NNW 21:04:52 10° NE
Lacrosse 4 Rocket 4.0 21:03:26 14° NE 21:03:26 14° NE 21:04:09 10° NE
MOS 1 Rocket 4.2 21:01:46 49° NNE 21:01:46 49° NNE 21:05:27 10° N
Cosmos 1125 Rocket 4.0 20:58:34 10° NNW 21:02:51 56° N 21:02:51 56° N
Cosmos 1763 Rocket 4.4 21:07:59 40° WNW 21:08:13 40° NW 21:13:00 10° NNE
USA 229 DEB 4.0 21:02:01 10° NW 21:08:53 60° WSW 21:08:53 60° WSW
USA 229 4.0 21:02:07 10° NW 21:08:59 61° WSW 21:08:59 61° WSW
Cosmos 2026 Rocket 4.1 21:14:13 66° W 21:14:25 66° WNW 21:20:49 10° N
Cosmos 1833 Rocket 3.8 21:13:40 10° NW 21:17:31 34° WNW 21:17:31 34° WNW
Meteor 2-3 Rocket 4.1 21:14:53 10° N 21:20:04 59° NE 21:20:04 59° NE
Cosmos 2082 Rocket 2.6 21:16:51 10° NW 21:21:23 58° NW 21:21:23 58° NW
S3M 3.9 21:18:27 10° NNW 21:24:21 82° N 21:24:21 82° N
Cosmos 1943 Rocket 3.8 21:28:31 23° E 21:28:31 23° E 21:31:35 10° NE
Cosmos 2278 Rocket 2.8 21:39:52 50° ENE 21:39:52 50° ENE 21:44:12 10° NE
SL-16 R/B 4.2 21:37:14 17° E 21:40:45 28° NE 21:45:57 10° N
Cosmos 1238 Rocket 4.4 21:41:05 47° WNW 21:41:05 47° WNW 21:46:07 10° N
Cosmos 2266 Rocket 4.0 21:46:36 72° NE 21:46:36 72° NE 21:52:13 10° NNE
Cosmos 883 Rocket 4.4 21:40:44 10° NNW 21:46:31 80° NNW 21:46:31 80° NNW
Meteor 2-17 Rocket 4.5 21:56:56 72° NW 21:56:56 72° NW 22:02:48 10° N
MOS 1-B Rocket 4.3 21:58:34 53° WNW 21:58:34 53° WNW 22:03:41 10° NNW
Cosmos 2315 Rocket 3.9 21:53:20 10° NNW 21:59:14 79° NW 21:59:14 79° NW
ATLAS 5 CENTAUR R/B 4.0 22:05:17 13° ENE 22:05:17 13° ENE 22:05:57 10° ENE
Nimbus 7 Rocket 4.5 21:56:38 10° NNE 22:02:11 71° ENE 22:02:11 71° ENE
Cosmos 1570 Rocket 4.5 22:03:44 59° NNE 22:03:44 59° NNE 22:08:00 10° NNE
USA 215 3.6 22:05:21 50° W 22:05:21 50° W 22:10:12 10° WNW
COSMOS 2406 4.5 22:02:50 10° NW 22:06:10 30° WNW 22:06:10 30° WNW
Lacrosse 5 4.0 22:15:44 17° E 22:15:44 17° E 22:17:14 10° ENE
ADEOS II 4.2 22:13:54 10° NE 22:17:11 16° E 22:18:07 16° E
USA 81 4.3 22:17:36 10° N 22:22:12 66° NNE 22:22:12 66° NNE
SL-08 ROCKET BODY 4.3 22:38:43 79° WNW 22:38:43 79° WNW 22:44:40 10° N
Lacrosse 4 Rocket 2.9 22:39:34 34° N 22:39:34 34° N 22:42:41 10° NNE
Cosmos 1244 Rocket 4.4 22:39:21 69° ESE 22:39:41 71° E 22:45:49 10° NNE
Cosmos 1867 3.7 22:39:04 10° NW 22:44:33 72° NE 22:44:55 69° ENE
Cosmos 1655 Rocket 4.2 22:45:30 55° W 22:45:45 55° WNW 22:51:56 10° N
Meteor 2-12 Rocket 4.3 22:47:00 81° SE 22:47:13 83° E 22:53:20 10° NNE
ATLAS 2AS CENTAUR R/B 3.8 22:42:48 10° WNW 22:49:51 44° N 22:56:31 10° ENE
Cosmos 158 Rocket 4.4 22:55:35 53° E 22:55:35 53° E 22:59:47 10° NNE
Cosmos 2369 Rocket 3.1 22:54:49 36° ESE 22:54:57 36° ESE 23:00:03 10° NE
Cosmos 2297 Rocket 4.4 22:51:23 10° NNW 22:56:01 25° NNE 23:00:37 10° E
ATLAS CENTAUR R/B 3.2 22:58:16 26° E 22:58:16 26° E 23:00:42 10° ENE
Resurs 1-4 Rocket 2.5 22:57:45 10° NNE 23:02:58 52° E 23:03:18 51° ESE
IDEFIX/ARIANE 42P 3.4 22:58:52 10° NNE 23:03:44 39° E 23:04:20 38° ESE
Cosmos 2082 Rocket 4.3 23:02:01 10° WNW 23:03:13 14° WNW 23:03:13 14° WNW
Cosmos 1833 4.2 23:02:22 10° NW 23:08:07 85° NE 23:08:55 68° SE
Nadezhda 2 Rocket 4.3 23:08:41 73° SW 23:09:11 79° WNW 23:15:24 10° N
NOSS 3-4 (A) 4.0 23:02:53 10° NW 23:09:22 68° NNE 23:16:51 10° ESE
Cosmos 773 Rocket 4.0 23:09:36 78° E 23:09:36 78° E 23:14:47 10° NNE
NOSS 3-4 (C) 4.0 23:02:59 10° NW 23:09:28 68° NNE 23:16:57 10° ESE
Cosmos 1943 Rocket 2.1 23:10:01 75° WNW 23:10:14 76° NW 23:15:54 10° NNE
CZ-2D R/B 2.4 23:05:12 10° NNE 23:10:26 56° ESE 23:10:51 55° ESE
Cosmos 783 Rocket 4.5 23:15:23 75° ESE 23:15:24 75° ESE 23:20:43 10° NNE
Cosmos 44 4.3 23:22:01 33° ESE 23:22:01 33° ESE 23:25:46 10° ENE
Cosmos 1242 Rocket 4.3 23:18:51 10° N 23:21:44 28° ENE 23:21:44 28° ENE
Meteor 1-20 Rocket 4.3 23:16:41 10° NNW 23:22:17 72° ENE 23:23:45 50° SE
Cosmos 2278 Rocket 3.2 23:21:41 32° WNW 23:23:03 37° NW 23:28:19 10° NNE
SL-16 R/B 2.4 23:22:18 56° S 23:23:47 85° WSW 23:30:07 10° NNW
Cosmos 1812 4.5 23:28:18 25° E 23:28:26 25° E 23:31:35 10° NNE
Cosmos 2058 Rocket 4.3 23:31:38 33° NW 23:31:38 33° NW 23:35:08 10° N
SL-08 R/B 4.5 23:30:41 60° SW 23:31:44 72° WNW 23:38:05 10° N
Cosmos 1666 3.7 23:28:29 10° N 23:31:08 42° N 23:31:08 42° N
BREEZE-M DEB (TANK) 3.9 23:32:51 51° SSW 23:33:17 52° S 23:48:56 10° ESE
Cosmos 1766 Rocket 3.8 23:29:31 10° N 23:34:01 65° ENE 23:34:18 63° E
AQUA 4.0 23:36:10 10° NNE 23:40:54 63° ESE 23:41:28 58° SE
Cosmos 2221 3.8 23:40:06 31° ESE 23:41:03 35° E 23:45:02 10° NNE
GEOS 3 Rocket 4.4 23:40:01 10° ESE 23:45:07 53° NNE 23:50:20 10° NW
Thor Agena Rocket 3.7 23:40:37 10° NNE 23:45:41 64° ESE 23:46:42 51° SSE
ATLAS 5 CENTAUR R/B 1.7 23:46:34 59° NNW 23:46:34 59° NNW 23:50:50 10° NE
Nadezhda 1 Rocket 4.1 23:42:27 10° NNW 23:48:27 52° W 23:49:09 49° WSW
EO 1 Delta rocket 3.8 23:52:38 56° SSE 23:53:41 87° ENE 23:58:56 10° N
